STARLINK-5726 (55608 NORAD) Tracking and Keplerian Element Data

This shows tracking and keplerian element data for the satellite.

Feedback or suggestion? Click here.




ElementValue
Catalog55608
NameSTARLINK-5726
Epoch Orbit660
Epoch Day85.25001157
Epoch Year2023
RAAN103.8532
Inclination42.9981
Eccentricity0.0001543
Argument of Perigee271.499
Mean Anonmoly98.0088
Mean Motion15.48930866
Decay Rate-0.00055004
L11 55608U 23020AR 23085.25001157 -.00055004 00000+0 -99486-3 0 9994
L22 55608 42.9981 103.8532 0001543 271.4990 98.0088 15.48930866 6601



Live tracking and technical data element details for STARLINK-5726 (NORAD 55608). STARLINK-5726 can be tracked NOW for your location showing map with azimuth and elevation plus other details from your city location.







IsCatalogInMostPopularTable: catalog: 55608, numindb: -1

Insert: records affected: 1


GetName: 55608 STARLINK-5726

Hit Count: inserted at: Tue, 28 Mar 2023 02:52:23 GMT